Flag for Germany Weather past 2 weeks in Homburg (Saar), Saarland, Germany

Now
37 °F

Light rain. Partly sunny.


Feels Like: 32 °F
Forecast: 28 / 43 °F
Wind: 7 mph from Northwest

Location: Saarbruecken / Ensheim

Current Time: Feb 27, 2015 at 6:22:42 PM

Latest Report: Feb 27, 2015 at 5:50 PM


Visibility: N/A

Pressure: 30.07 "Hg

Humidity: 81%

Dew point: 32 °F

Location of Homburg (Saar)Location

Historic Weather in Homburg (Saar) — Graph

°F

Homburg (Saar) temperature yesterday

Maximum temperature yesterday: 45 °F (at 12:20 PM)
Minimum temperature yesterday: 37 °F (at 3:20 AM)
Average temperature yesterday: 41 °F

Past Weeks' High & Low Weather Summary

 TemperatureHumidityPressure
High52 °F (Feb 20, 3:50 PM)100% (Feb 12, 7:20 PM)30.69 "Hg (Feb 12, 7:20 PM)
Low27 °F (Feb 13, 3:50 AM)46% (Feb 20, 9:20 PM)29.45 "Hg (Feb 23, 12:50 PM)
Average36 °F86%29.99 "Hg
* Reported Feb 12 5:20 PM — Feb 27 5:20 PM, Homburg (Saar), Weather by CustomWeather, © 2015

Note: Actual official high and low records may vary slightly from our data, if they occured in-between our weather recording intervals... More about our weather records

Advertising

Homburg (Saar) weather history for previous 24 hours

 ConditionsComfort  
Time TempWeatherWind HumidityBarometerVisibility
5:20 PM
Fri, Feb 27
39 °FLight rain. Broken clouds.10 mph81%30.04 "HgN/A
4:50 PM39 °FLight rain. Partly sunny.9 mph81%30.04 "HgN/A
4:20 PM39 °FLight rain. Partly sunny.10 mph81%30.01 "HgN/A
3:50 PM39 °FLight rain. Broken clouds.13 mph75%30.01 "HgN/A
3:20 PM39 °FLight rain. Partly sunny.8 mph81%29.98 "HgN/A
2:50 PM39 °FBroken clouds.10 mph81%29.98 "HgN/A
2:20 PM39 °FLight rain. Broken clouds.13 mph81%29.95 "HgN/A
1:50 PM39 °FBroken clouds.10 mph81%29.95 "HgN/A
1:20 PM39 °FBroken clouds.12 mph81%29.92 "HgN/A
12:50 PM39 °FPartly sunny.10 mph81%29.92 "HgN/A
12:20 PM39 °FPartly sunny.10 mph81%29.92 "HgN/A
11:50 AM39 °FPartly sunny.13 mph87%29.89 "HgN/A
11:20 AM39 °FPartly sunny.13 mph87%29.89 "HgN/A
10:50 AM39 °FMostly cloudy.10 mph87%29.86 "HgN/A
10:20 AM39 °FLight rain. Mostly cloudy.13 mph87%29.86 "HgN/A
9:50 AM39 °FLight rain. Mostly cloudy.12 mph93%29.83 "HgN/A
9:20 AM37 °FLight rain. Mostly cloudy.14 mph93%29.83 "Hg6 mi
8:50 AM37 °FLight rain. Mostly cloudy.14 mph100%29.80 "Hg5 mi
8:20 AM39 °FLight rain. Mostly cloudy.12 mph93%29.80 "Hg4 mi
7:50 AM39 °FLight rain. Fog.5 mph100%29.77 "Hg2 mi
7:20 AM39 °FLight rain. Fog.3 mph100%29.77 "Hg1 mi
6:50 AM39 °FLight rain. Partly cloudy.No wind100%29.74 "Hg4 mi
6:20 AM39 °FLight rain. Partly cloudy.No wind100%29.74 "Hg4 mi
5:50 AM39 °FLight rain. Partly cloudy.No wind100%29.74 "Hg4 mi
5:20 AM39 °FLight rain. Partly cloudy.1 mph100%29.74 "Hg4 mi
4:20 AM39 °FLight rain. Fog.5 mph100%29.74 "Hg3 mi
3:50 AM39 °FLight rain. Fog.7 mph100%29.74 "Hg3 mi
3:20 AM39 °FLight rain. Fog.7 mph100%29.77 "Hg3 mi
2:50 AM39 °FLight rain. Fog.7 mph93%29.77 "Hg3 mi
2:20 AM39 °FLight rain. Passing clouds.6 mph93%29.80 "Hg5 mi
1:50 AM39 °FLight rain. Passing clouds.9 mph93%29.80 "Hg6 mi
1:20 AM39 °FLight rain. Passing clouds.8 mph93%29.80 "Hg6 mi
12:50 AM39 °FLight rain. Passing clouds.8 mph93%29.83 "HgN/A
12:20 AM39 °FLight rain. Passing clouds.7 mph93%29.83 "HgN/A
11:50 PM
Thu, Feb 26
39 °FLight rain. Passing clouds.7 mph93%29.86 "HgN/A
11:20 PM39 °FLight rain. Mostly cloudy.7 mph93%29.86 "HgN/A
10:50 PM39 °FLight rain. Mostly cloudy.10 mph87%29.89 "HgN/A
10:20 PM41 °FLight rain. Mostly cloudy.12 mph81%29.89 "HgN/A
9:50 PM43 °FLight rain. Mostly cloudy.12 mph71%29.89 "HgN/A
9:20 PM43 °FLight rain. Partly cloudy.8 mph71%29.92 "HgN/A
8:50 PM43 °FPassing clouds.6 mph71%29.92 "HgN/A
8:20 PM45 °FClear.6 mph66%29.92 "Hg10 mi
7:50 PM43 °FClear.3 mph71%29.95 "Hg10 mi
7:20 PM43 °FClear.3 mph76%29.95 "Hg10 mi
6:50 PM43 °FPassing clouds.3 mph76%29.95 "HgN/A
6:20 PM45 °FPassing clouds.3 mph71%29.95 "HgN/A
Weather by CustomWeather, © 2015

See weather overviewHow to use our weather pages